Вернуться в каталог

STARLINK-2757

АктивенСвязьVLEO
NORAD 48604·PAYLOAD·🇺🇸 United States

Запущен May 15, 2021 с Cape Canaveral Space Force Station

Loading…

Ближайшие Пролёты (ближайшие 24 часа)

TLE

СвежийSource: CelesTrak SupGP

Эпоха: Sep 15, 2026, 01:38 UTC

1 48604C 21041BD  26258.06854167  .00037934  00000+0  12198-2 0  2586
2 48604  53.1599 347.5970 0001085  83.0741  73.6536 15.31683698    19

Отслеживайте STARLINK-2757 в реальном времени с AllMySat

Download on the App Store